• Join FlightAware (Why Join?)
  • Login
  • US Flag GB Flag 
22:24 BST


 

Airport Tracker/Info


-or-


 

Live Flight TrackerFlight Track Log ✈ ASQ5874 ✈ 02-May-2013 ✈ KORD - CYOW

Flight Track Log - Related Links

Times and Time Zones

All times are in BST time to prevent confusion due to time zone crossing. See the ASQ5874 flight status page for this flight to view local times or setup timezone preferences in your user account.

Time Position Orientation Groundspeed Altitude Reporting Facility
BST Latitude Longitude Course Direction KTS MPH feet Rate Location/Type
12:36 42.0000 -87.9333 20° North 161 185 1,800  Level Chicago TRACON
12:37 42.0333 -87.9167 20° North 233 268 3,300 1,620 Climbing Chicago TRACON
12:38 42.0667 -87.8333 62° Northeast 268 308 4,900 1,500 Climbing Chicago TRACON
12:40 42.0753 -87.6314 87° East 270 311 8,000 1,800 Climbing Chicago Center
12:41 42.1117 -87.5369 63° Northeast 286 329 10,600 2,400 Climbing Chicago Center
12:42 42.1300 -87.4350 76° East 281 323 12,900 1,740 Climbing Chicago Center
12:43 42.1389 -87.3225 84° East 298 343 14,200 1,080 Climbing Chicago Center
12:44 42.1483 -87.1942 84° East 336 387 15,200 1,020 Climbing Chicago Center
12:45 42.1592 -87.0583 84° East 362 417 16,400 1,200 Climbing Chicago Center
12:46 42.1728 -86.8900 84° East 375 432 17,700 1,260 Climbing Chicago Center
12:47 42.1822 -86.7469 85° East 382 440 19,000 1,200 Climbing Chicago Center
12:48 42.1928 -86.6164 84° East 394 453 20,200 1,140 Climbing Chicago Center
12:49 42.2044 -86.4675 84° East 400 460 21,400 1,020 Climbing Chicago Center
12:50 42.2150 -86.3147 85° East 406 467 22,400 1,020 Climbing Chicago Center
12:51 42.2286 -86.1264 84° East 419 482 23,600 1,260 Climbing Chicago Center
12:52 42.2394 -85.9689 85° East 422 486 25,000 1,260 Climbing Chicago Center
12:53 42.2478 -85.8281 85° East 416 479 26,200 1,200 Climbing Chicago Center
12:54 42.2589 -85.6731 84° East 417 480 27,500 1,200 Climbing Chicago Center
12:55 42.2708 -85.4869 85° East 417 480 28,700 1,200 Climbing Chicago Center
12:56 42.2844 -85.3439 83° East 420 483 29,900 1,320 Climbing Cleveland Center
12:57 42.2928 -85.1900 86° East 420 483 31,300 1,320 Climbing Cleveland Center
12:58 42.3011 -85.0306 86° East 420 483 32,600 1,320 Climbing Cleveland Center
12:59 42.2989 -84.8731 91° East 420 483 34,000 1,200 Climbing Cleveland Center
13:00 42.3192 -84.7200 80° East 420 483 35,000 480 Climbing Cleveland Center
13:01 42.3478 -84.5589 76° East 425 489 35,000  Level Cleveland Center
13:02 42.3844 -84.3981 73° East 436 502 35,000  Level Cleveland Center
13:03 42.4189 -84.2369 74° East 442 509 35,000  Level Cleveland Center
13:04 42.4531 -84.0728 74° East 442 509 35,000  Level Cleveland Center
13:05 42.4892 -83.9086 73° East 442 509 35,000  Level Cleveland Center
13:06 42.5231 -83.7469 74° East 448 516 35,000  Level Cleveland Center
13:07 42.5586 -83.5825 74° East 448 516 35,000  Level Cleveland Center
13:08 42.5942 -83.4206 73° East 448 516 35,000  Level Cleveland Center
13:09 42.6250 -83.2583 75° East 448 516 35,000  Level Cleveland Center
13:10 42.6600 -83.0961 74° East 448 516 35,000  Level Cleveland Center
13:11 42.6858 -82.9558 76° East 448 516 35,000  Level Cleveland Center
13:12 42.7286 -82.7964 70° East 443 510 35,000  Level Cleveland Center
13:13 42.7753 -82.6425 68° East 438 504 35,000  Level Cleveland Center
13:14 42.8239 -82.4883 67° East 443 510 35,000  Level Cleveland Center
13:15 42.8722 -82.3311 67° East 443 510 35,000  Level Cleveland Center
13:15 42.8833 -82.2667 77° East 450 518 35,000  Level Toronto Center
13:16 42.9167 -82.1000 75° East 450 518 35,000  Level Toronto Center
13:17 42.9667 -81.9500 65° Northeast 450 518 35,000  Level Toronto Center
13:18 43.0333 -81.7833 61° Northeast 450 518 35,000  Level Toronto Center
13:19 43.0667 -81.6167 75° East 450 518 35,000  Level Toronto Center
13:20 43.1167 -81.4667 65° Northeast 450 518 35,000  Level Toronto Center
13:21 43.1667 -81.3000 68° East 450 518 35,000  Level Toronto Center
13:22 43.2000 -81.1667 71° East 450 518 35,000  Level Toronto Center
13:23 43.2500 -80.9833 69° East 450 518 35,000  Level Toronto Center
13:24 43.3000 -80.8167 68° East 450 518 35,000  Level Toronto Center
13:25 43.3500 -80.6667 65° Northeast 450 518 35,000  Level Toronto Center
13:26 43.4000 -80.5333 63° Northeast 450 518 35,000  Level Toronto Center
13:28 43.4833 -80.2000 71° East 440 506 35,000  Level Toronto Center
13:29 43.5333 -80.0167 69° East 440 506 35,000  Level Toronto Center
13:30 43.5667 -79.8833 71° East 440 506 35,000  Level Toronto Center
13:31 43.6167 -79.7333 65° Northeast 440 506 35,000  Level Toronto Center
13:32 43.6667 -79.5667 67° East 450 518 35,000  Level Toronto Center
13:33 43.7167 -79.4000 67° East 450 518 35,000  Level Toronto Center
13:34 43.7500 -79.2333 74° East 440 506 35,000  Level Toronto Center
13:35 43.8000 -79.0833 65° Northeast 440 506 35,000  Level Toronto Center
13:36 43.8500 -78.9333 65° Northeast 440 506 35,000  Level Toronto Center
13:37 43.9000 -78.7500 69° East 440 506 35,000  Level Toronto Center
13:38 43.9500 -78.6167 62° Northeast 450 518 35,000  Level Toronto Center
13:39 43.9667 -78.4500 82° East 450 518 35,000  Level Toronto Center
13:40 44.0333 -78.2833 61° Northeast 450 518 35,000  Level Toronto Center
13:41 44.1000 -78.1500 55° Northeast 450 518 35,000  Level Toronto Center
13:42 44.1667 -78.0000 58° Northeast 440 506 35,000  Level Toronto Center
13:43 44.2333 -77.8667 55° Northeast 440 506 35,000 -420 Level Toronto Center
13:44 44.3000 -77.7000 61° Northeast 440 506 34,200 -1,440 Descending Toronto Center
13:45 44.3667 -77.5500 58° Northeast 440 506 32,200 -2,040 Descending Toronto Center
13:46 44.4333 -77.4167 55° Northeast 420 483 30,200 -2,040 Descending Toronto Center
13:47 44.5000 -77.3000 51° Northeast 420 483 27,900 -2,460 Descending Montreal Center
13:48 44.5667 -77.1500 58° Northeast 430 495 24,900 -3,000 Descending Montreal Center
13:49 44.6167 -77.0000 65° Northeast 430 495 22,000 -2,520 Descending Montreal Center
13:50 44.6833 -76.8667 55° Northeast 430 495 19,900 -2,040 Descending Montreal Center
13:51 44.7500 -76.7500 51° Northeast 390 449 18,000 -1,800 Descending Montreal Center
13:52 44.8000 -76.6333 59° Northeast 350 403 16,400 -1,020 Descending Montreal Center
13:53 44.8500 -76.5333 55° Northeast 320 368 16,000 -600 Descending Montreal Center
13:54 44.9000 -76.4333 55° Northeast 300 345 15,300 -540 Descending Montreal Center
13:55 44.9500 -76.3500 50° Northeast 290 334 15,000 -540 Descending Montreal Center
13:56 44.9833 -76.2500 65° Northeast 290 334 14,300 -900 Descending Montreal Center
13:57 45.0000 -76.1333 79° East 300 345 13,300 -1,080 Descending Montreal Center
13:58 45.0167 -76.0167 79° East 300 345 12,200 -1,500 Descending Montreal Center
13:59 45.0500 -75.9167 65° Northeast 270 311 10,400 -1,800 Descending Montreal Center
14:00 45.0667 -75.8333 74° East 260 299 8,700 -1,920 Descending Montreal Center
14:01 45.0833 -75.7333 77° East 240 276 6,600 -2,220 Descending Montreal Center
14:02 45.1167 -75.6333 65° Northeast 250 288 4,300 -2,160 Descending Montreal Center
14:03 45.1333 -75.5333 77° East 240 276 2,300 -1,140 Descending Montreal Center
14:04 45.1833 -75.5000 25° Northeast 200 230 2,100 -120 Descending Montreal Center
14:05 45.2333 -75.5333 335° Northwest 190 219 2,100 -300 Level Montreal Center
14:06 45.2667 -75.5833 313° West 150 173 1,600 -600 Descending Montreal Center
14:07 45.2833 -75.6333 295° West 120 138 900 -720 Descending Montreal Center